Location: Unspecified
(58.9933°N, 5.6375°E)
Time: 20:19:54
(UTC+02:00)

CZ-3 Stage 3 - Visible Passes

Search period start: 23 September 2014 00:00
Search period end: 03 October 2014 00:00
Orbit: 410 x 34835 km, 30.8° (Epoch: 20 September)

Date Brightness Start Highest point End Pass type
(mag) Time Alt. Az. Time Alt. Az. Time Alt. Az.
23 Sep 7.8 05:59:23 10° SSW 08:18:11 26° S 08:32:32 10° SE visible
24 Sep 8.4 02:24:01 10° SSE 04:20:55 19° SE 04:51:55 10° ESE visible
26 Sep 7.7 05:48:31 10° SSW 08:15:40 27° S 08:29:51 10° SE visible
27 Sep 8.3 02:06:49 10° SSE 04:18:39 21° SSE 04:50:16 10° ESE visible
29 Sep 7.7 05:37:08 10° SSW 08:13:01 28° S 08:27:01 10° SE visible
30 Sep 8.2 01:49:45 10° SSE 04:16:15 22° SSE 04:48:18 10° ESE visible
02 Oct 7.6 05:25:10 10° SSW 08:10:12 28° S 08:24:03 10° SE visible
